HST,Max TemperatureF,Mean TemperatureF,Min TemperatureF,Max Dew PointF,MeanDew PointF,Min DewpointF,Max Humidity, Mean Humidity, Min Humidity, Max Sea Level PressureIn, Mean Sea Level PressureIn, Min Sea Level PressureIn, Max VisibilityMiles, Mean VisibilityMiles, Min VisibilityMiles, Max Wind SpeedMPH, Mean Wind SpeedMPH, Max Gust SpeedMPH,PrecipitationIn, CloudCover, Events, WindDirDegrees
2011-10-1,,,,,,,,,,,,,,,,,,,,,,
2011-10-2,,,,,,,,,,,,,,,,,,,,,,
2011-10-3,68,64,59,50,42,10,59,45,15,30.39,30.37,30.34,7,7,7,29,18,45,0.00,6,,105
2011-10-4,73,62,51,52,47,39,63,49,29,30.61,30.41,30.33,7,7,7,15,8,22,0.00,6,,232
2011-10-5,71,61,51,39,38,36,62,44,27,30.41,30.38,30.32,7,7,7,16,12,30,0.00,4,,114
2011-10-6,75,62,48,54,44,37,76,51,25,30.62,30.39,30.30,7,7,7,20,12,36,0.00,6,,111
2011-10-7,71,58,46,43,38,34,71,40,27,30.38,30.34,30.31,7,7,7,23,8,31,0.00,5,,129
2011-10-8,,,,,,,,,,,,,,,,,,,,,,
2011-10-9,,,,,,,,,,,,,,,,,,,,,,
2011-10-10,,,,,,,,,,,,,,,,,,,,,,
2011-10-11,69,60,50,54,48,39,82,66,40,30.48,30.29,30.22,12,7,6,13,5,21,0.00,4,Rain,229
2011-10-12,68,57,46,52,46,39,88,68,48,30.61,30.35,30.25,7,7,7,10,4,28,0.00,4,,261
2011-10-13,68,55,42,52,43,30,88,68,37,30.60,30.34,30.29,12,8,7,12,5,24,0.00,4,,77
2011-10-14,71,58,44,50,44,36,87,67,38,30.35,30.31,30.26,11,7,7,15,8,21,0.00,3,,79
2011-10-15,68,57,46,54,47,39,87,73,56,30.62,30.31,30.21,12,9,5,13,5,29,0.26,3,Rain,64
2011-10-16,68,56,44,50,45,39,88,71,43,30.57,30.30,30.19,12,10,2,15,5,20,0.00,3,,273
2011-10-17,66,54,42,52,45,32,88,71,32,30.60,30.30,30.21,7,6,1,14,5,22,0.00,4,,254
2011-10-18,64,52,39,52,43,28,94,70,31,30.59,30.32,30.26,9,6,4,15,4,22,0.00,3,,257
2011-10-19,68,54,41,50,42,30,77,64,42,30.62,30.30,30.21,11,7,6,12,5,23,0.00,2,,46
2011-10-20,66,54,41,54,41,27,82,65,49,30.52,30.30,30.22,10,7,7,15,7,22,0.00,2,,90
2011-10-21,68,54,41,48,41,30,87,65,24,30.38,30.31,30.25,12,8,5,16,5,21,0.00,2,,77
2011-10-22,68,55,42,54,46,37,87,69,43,30.62,30.34,30.22,12,9,5,15,5,23,0.00,3,,101
2011-10-23,69,56,42,54,46,37,82,68,40,30.52,30.21,30.13,12,10,5,12,5,21,0.00,2,,141
2011-10-24,68,57,46,54,44,36,88,68,46,30.52,30.23,30.14,12,8,7,17,7,23,0.00,2,,81
2011-10-25,68,56,44,52,46,37,88,73,46,30.61,30.29,30.19,12,8,6,14,5,21,0.00,4,,329
2011-10-26,68,56,44,52,43,25,88,64,40,30.60,30.29,30.19,12,7,5,15,5,20,0.00,4,,359
2011-10-27,66,56,46,52,46,41,87,70,52,30.53,30.21,30.11,12,7,7,14,5,21,0.00,5,,262
2011-10-28,66,55,44,48,38,30,76,55,34,30.20,30.16,30.12,12,9,7,15,6,21,0.00,4,,77
2011-10-29,,,,,,,,,,,,,,,,,,,,,,
2011-10-30,,,,,,,,,,,,,,,,,,,,,,
2011-10-31,66,57,48,52,47,39,72,60,52,30.26,30.23,30.17,12,8,7,14,6,22,0.00,4,,236